Miscellaneous Local Product
Issued by NWS Hastings, NE

Home | Current Version | Previous Version | Graphics & Text | Print | Product List | Glossary On
Versions: 1 2 3 4 5 6 7 8 9 10 11 12 13 14 15 16 17 18 19 20 21 22 23 24 25 26 27 28 29 30 31 32 33 34 35 36 37 38 39 40 41 42 43 44 45 46 47 48 49 50
000
AXUS43 KGID 271802
MISGRI

GID CWA HOURLY WEATHER ROUNDUP
NATIONAL WEATHER SERVICE HASTINGS NE
1200 PM CST SAT DEC 27 2014

NOTE: "FAIR" INDICATES FEW OR NO CLOUDS BELOW 12,000 FEET WITH NO
SIGNIFICANT WEATHER AND/OR OBSTRUCTIONS TO VISIBILITY.

...SOUTH CENTRAL NEBRASKA...

CITY           SKY/WX    TMP DP  RH WIND       PRES   REMARKS
GRAND ISLAND   SUNNY     21  14  74 NW10      30.25F WCI  10
HASTINGS       SUNNY     21  13  71 NW13      30.24F WCI   9
KEARNEY        SUNNY     19  12  73 W13       30.25F WCI   7
ORD            SUNNY     20  12  71 NW10      30.22F WCI   9
YORK           SUNNY     19  16  86 NW9       30.25F WCI   9
AURORA         SUNNY     22  16  79 W12       30.25S WCI  10
LEXINGTON      SUNNY     20  15  79 NW8       30.25F WCI  11
HOLDREGE       SUNNY     19  12  76 W9        30.26S WCI   8
HEBRON         SUNNY     25  17  72 NW8       30.28F WCI  16

...NEBRASKA PANHANDLE...

CITY           SKY/WX    TMP DP  RH WIND       PRES   REMARKS
CHADRON        SUNNY     16  10  77 SW7       30.15F WCI   6
ALLIANCE       SUNNY     14   7  73 W6        30.14F WCI   5
SCOTTSBLUFF    SUNNY     12   6  77 NW7       30.17F WCI   1
SIDNEY         SUNNY     19   8  62 W12       30.17F WCI   7

...WESTERN AND NORTH CENTRAL NEBRASKA...

CITY           SKY/WX    TMP DP  RH WIND       PRES   REMARKS
VALENTINE      SUNNY     18  10  71 SW7       30.17F WCI   9
AINSWORTH      SUNNY     18  13  79 W8        30.17F WCI   8
ONEILL         SUNNY     16  12  83 W6        30.21F WCI   8
BROKEN BOW     SUNNY     20  12  71 W9        30.21F WCI   9
IMPERIAL       SUNNY     17   9  70 NW9       30.22F WCI   6
NORTH PLATTE   SUNNY     18  13  80 W10       30.22F WCI   6
MCCOOK         SUNNY     19  12  74 W10       30.26F WCI   7

...EASTERN NEBRASKA...

CITY           SKY/WX    TMP DP  RH WIND       PRES   REMARKS
NORFOLK        SUNNY     20  13  74 W10       30.22F WCI   9
SO SIOUX CITY  MOSUNNY   21  14  74 NW8       30.24F WCI  11
TEKAMAH        SUNNY     22  15  75 NW10      30.25F WCI  11
COLUMBUS       SUNNY     19  10  68 W10       30.26F WCI   8
ALBION         SUNNY     22  13  69 W8        30.22F WCI  12
OMAHA EPPLEY   PTSUNNY   26  18  71 NW10      30.26F WCI  16
OFFUTT AFB     MOSUNNY   26  18  72 NW10      30.24F WCI  15
MILLARD        SUNNY     25  17  71 NW10      30.26S WCI  14
LINCOLN        SUNNY     25  17  72 NW10      30.28F WCI  15
NEBRASKA CITY  PTSUNNY   26  20  79 NW10      30.25F WCI  16
BEATRICE       SUNNY     25  18  73 NW10      30.27F WCI  15
FALLS CITY     CLOUDY    28  19  69 NW13      30.26F WCI  17

...NORTHERN KANSAS...

CITY           SKY/WX    TMP DP  RH WIND       PRES   REMARKS
GOODLAND       SUNNY     21  13  71 NW15      30.22F WCI   8
HILL CITY      SUNNY     23  14  68 NW8       30.29F WCI  14
NORTON         CLEAR     23  12  63 W8        30.26F WCI  14
PHILLIPSBURG   SUNNY     28  18  64 NW12      30.29F WCI  18
BELOIT         SUNNY     27  18  69 W9        30.30F WCI  17
HAYS           SUNNY     27  12  54 N9        30.30F WCI  17
RUSSELL        SUNNY     25  18  74 NW12      30.29F WCI  14
CONCORDIA      SUNNY     26  18  71 NW8       30.29F WCI  18
SALINA         MOSUNNY   30  17  58 NW10      30.32F WCI  21
TOPEKA         MOSUNNY   32  20  61 NW13      30.29F WCI  22



USA.gov is the U.S. government's official web portal to all federal, state and local government web resources and services.